EW3125 Weather Reports


time (UTC)temp
F
wind
direction
speed
knots
gust
knots
rain 1hr
in
rain 24hr
in
rain mn
in
humidity
%
barometer
mb
20260506103042 74 183 3.5 7.8 0.00 0.00 0.00 91 1008.3
20260506101600 74 186 3.5 11.3 0.00 0.00 0.00 91 1008.1
20260506100045 74 180 3.5 8.7 0.00 0.00 0.00 91 1008.0
20260506094543 74 196 4.3 8.7 0.00 0.00 0.00 91 1007.7
20260506093040 74 160 4.3 13.0 0.00 0.00 0.00 91 1007.6
20260506091541 74 210 5.2 10.4 0.00 0.00 0.00 91 1007.6
20260506090046 74 185 4.3 10.4 0.00 0.00 0.00 92 1007.6
20260506084545 74 180 4.3 8.7 0.00 0.00 0.00 92 1007.6
20260506083048 74 175 3.5 7.8 0.00 0.00 0.00 91 1007.7
20260506081541 74 173 3.5 8.7 0.00 0.00 0.00 91 1007.8
20260506073042 75 183 4.3 9.6 0.00 0.00 0.00 90 1007.9
20260506071545 75 177 4.3 9.6 0.00 0.00 0.00 91 1008.1
20260506061541 74 162 2.6 7.0 0.00 0.00 0.00 91 1008.3
20260506044542 75 175 3.5 6.1 0.00 0.00 0.00 89 1008.3
20260506043049 75 173 4.3 7.0 0.00 0.00 0.00 88 1008.5
20260506041547 76 192 4.3 7.8 0.00 0.00 0.00 88 1008.0
20260506040050 76 154 4.3 8.7 0.00 0.00 0.00 88 1008.0
20260506034541 76 159 4.3 10.4 0.00 0.00 0.00 87 1007.9
20260506033043 76 167 4.3 8.7 0.00 0.00 0.00 87 1007.5
20260506031541 76 166 3.5 8.7 0.00 0.00 0.00 86 1007.5
20260506030040 76 179 4.3 10.4 0.00 0.00 0.00 85 1007.3
20260506024546 77 158 4.3 7.0 0.00 0.00 0.00 84 1006.9
20260506023043 77 164 4.3 8.7 0.00 0.00 0.00 83 1007.0
20260506021552 78 149 4.3 11.3 0.00 0.00 0.00 83 1006.6
20260506020041 78 155 3.5 9.6 0.00 0.00 0.00 82 1006.6
20260506014541 79 144 1.7 7.0 0.00 0.00 0.00 79 1006.6
20260506013044 79 157 3.5 7.0 0.00 0.00 0.00 79 1006.4
20260506011548 80 141 1.7 3.5 0.00 0.00 0.00 79 1006.3
20260506010048 80 144 1.7 3.5 0.00 0.00 0.00 78 1006.0
20260506004540 81 137 1.7 5.2 0.00 0.00 0.00 77 1005.9
20260506003042 81 134 0.9 2.6 0.00 0.00 0.00 75 1005.7
20260506001541 82 140 1.7 6.1 0.00 0.00 0.00 74 1005.5
20260506000040 83 192 3.5 7.0 0.00 0.00 0.00 72 1005.6
20260505234605 83 153 3.5 8.7 0.00 0.00 0.00 72 1005.5
20260505233047 83 165 5.2 10.4 0.00 0.00 0.00 71 1005.4
20260505231542 83 148 5.2 12.2 0.00 0.00 0.00 72 1005.3
20260505230046 83 146 5.2 9.6 0.00 0.00 0.00 72 1005.3
20260505224541 84 192 4.3 9.6 0.00 0.00 0.00 71 1005.4
20260505223046 84 135 5.2 9.6 0.00 0.00 0.00 71 1005.4
20260505221543 83 194 5.2 10.4 0.00 0.00 0.00 72 1005.5
20260505220046 83 169 7.0 11.3 0.00 0.00 0.00 71 1005.6
20260505214552 83 184 5.2 13.0 0.00 0.00 0.00 71 1005.8
20260505213042 83 161 6.1 10.4 0.00 0.00 0.00 71 1005.9
20260505211549 83 169 6.1 12.2 0.00 0.00 0.00 71 1006.0
20260505210041 84 190 7.8 14.8 0.00 0.00 0.00 69 1006.2
20260505204540 82 170 6.1 9.6 0.00 0.00 0.00 72 1006.6
20260505203052 82 153 6.1 11.3 0.00 0.00 0.00 72 1006.7
20260505201542 82 184 6.1 10.4 0.00 0.00 0.00 72 1006.9
20260505200040 81 194 7.0 15.6 0.00 0.00 0.00 74 1007.1
20260505194544 81 192 6.1 11.3 0.00 0.00 0.00 75 1007.3
20260505193042 80 158 5.2 12.2 0.00 0.00 0.00 77 1007.5
20260505191550 80 182 6.1 9.6 0.00 0.00 0.00 78 1007.9
20260505190043 79 186 7.0 10.4 0.00 0.00 0.00 78 1007.9
20260505184548 79 175 6.1 10.4 0.00 0.00 0.00 77 1008.0
20260505183043 78 231 6.1 10.4 0.00 0.00 0.00 79 1008.1
20260505181543 78 183 7.0 10.4 0.00 0.00 0.00 80 1008.3
20260505180053 77 211 5.2 10.4 0.00 0.00 0.00 81 1008.5
20260505174542 76 234 6.1 8.7 0.00 0.00 0.00 83 1008.8
20260505173040 76 227 7.0 13.0 0.00 0.00 0.00 84 1008.7
20260505171540 75 211 6.1 11.3 0.00 0.00 0.00 85 1008.8
20260505170038 74 220 5.2 8.7 0.00 0.00 0.00 86 1009.0
20260505164542 74 202 5.2 8.7 0.00 0.00 0.00 87 1009.0
20260505163042 74 186 4.3 9.6 0.00 0.00 0.00 87 1008.9
20260505161543 73 229 5.2 8.7 0.00 0.00 0.00 87 1009.0
20260505153050 72 216 4.3 8.7 0.00 0.00 0.00 91 1009.0
20260505151545 71 204 4.3 9.6 0.00 0.00 0.00 92 1008.8
20260505124548 71 176 7.0 12.2 0.00 0.00 0.00 89 1007.8
20260505123045 71 204 4.3 9.6 0.00 0.00 0.00 89 1007.6
20260505121548 71 194 4.3 10.4 0.00 0.00 0.00 89 1007.6
20260505120040 71 180 4.3 10.4 0.00 0.00 0.00 89 1007.2
20260505114540 71 186 5.2 9.6 0.00 0.00 0.00 89 1007.4
20260505113042 70 171 4.3 10.4 0.00 0.00 0.00 89 1007.3
20260505111545 70 193 6.1 12.2 0.00 0.00 0.00 88 1007.3